SCP
5 7 8 7 6 6 5 4 4 3 3 2 2 2 1 1 1 1 1 1 0 0 0 0 0 0 0 0 0 0 0 0 0 0 0 0 0 0 1 1 1 1 2
4 5 5 5 4 4 4 3 3 3 2 2 2 2 1 1 1 1 1 1 1 0 0 0 0 0 0 0 0 0 0 0 0 0 0 0 0 0 1 1 1 2 2
2 2 2 2 2 2 2 3 3 3 2 2 1 1 1 1 1 1 1 1 1 1 0 0 0 0 0 0 0 0 0 0 0 0 0 0 0 0 0 1 1 2 2
1 1 1 1 1 1 2 2 3 3 2 2 1 1 1 1 1 1 1 1 1 1 0 0 0 0 0 0 0 0 0 0 0 0 0 0 0 0 0 0 1 1 2
0 0 0 0 1 1 1 2 3 3 2 2 2 2 1 1 1 1 2 2 1 1 1 1 0 0 0 0 0 0 0 0 0 0 0 0 0 0 0 0 0 1 1
0 0 0 0 0 1 1 1 2 2 2 2 2 2 2 2 2 2 2 2 2 1 1 1 1 0 0 0 0 0 0 0 0 0 0 0 0 0 0 0 0 0 0
0 0 0 0 0 0 0 0 1 1 1 1 2 2 2 2 2 2 2 2 2 2 2 1 1 1 0 0 0 0 0 0 0 0 0 0 0 0 0 0 0 0 0
0 0 0 0 0 0 0 0 0 0 0 1 1 1 2 2 2 3 3 3 3 2 2 2 1 1 0 0 0 0 0 0 0 0 0 0 0 0 0 0 0 0 0
0 0 0 0 0 0 0 0 0 0 0 0 0 0 1 1 2 2 3 4 3 3 3 2 1 1 1 0 0 0 0 0 0 0 0 0 0 0 0 0 0 0 0
0 0 0 0 0 0 0 0 0 0 0 0 0 0 0 0 1 1 2 3 3 3 3 3 2 1 1 1 0 0 0 0 0 0 0 0 0 0 0 0 0 0 0
0 0 0 0 0 0 0 0 0 0 0 0 0 0 0 0 0 0 1 1 2 2 3 3 2 2 1 1 1 0 0 0 0 0 0 0 0 0 0 0 0 0 0
0 0 0 0 0 0 0 0 0 0 0 0 0 0 0 0 0 0 0 0 0 1 1 2 2 2 2 1 1 1 0 0 0 0 0 0 0 0 0 0 0 0 0
0 0 0 0 0 0 0 0 0 0 0 0 0 0 0 0 0 0 0 0 0 0 0 1 1 2 2 1 1 1 1 0 0 0 0 0 0 0 0 0 0 0 0
0 0 0 0 0 0 0 0 0 0 0 0 0 0 0 0 0 0 0 0 0 0 0 0 0 1 1 1 1 1 1 0 0 0 0 0 0 0 0 0 0 0 0
0 0 0 0 0 0 0 0 0 0 0 0 0 0 0 0 0 0 0 0 0 0 0 0 0 0 1 1 1 1 1 1 0 0 0 0 0 0 0 0 0 0 0
0 0 0 0 0 0 0 0 0 0 0 0 0 0 0 0 0 0 0 0 0 0 0 0 0 0 0 0 0 0 1 1 0 0 0 0 0 0 0 0 0 0 0
0 0 0 0 0 0 0 0 0 0 0 0 0 0 0 0 0 0 0 0 0 0 0 0 0 0 0 0 0 0 0 0 0 0 0 0 0 0 0 0 0 0 0
0 0 0 0 0 0 0 0 0 0 0 0 0 0 0 0 0 0 0 0 0 0 0 0 0 0 0 0 0 0 0 0 0 0 0 0 0 0 0 0 0 0 0
0 0 0 0 0 0 0 0 0 0 0 0 0 0 0 0 0 0 0 0 0 0 0 0 0 0 0 0 0 0 0 0 0 0 0 0 0 0 0 0 0 0 0
0 0 0 0 0 0 0 0 0 0 0 0 0 0 0 0 0 0 0 0 0 0 0 0 0 0 0 0 0 0 0 0 0 0 0 0 0 0 0 0 0 0 0
0 0 0 0 0 1 1 1 0 0 0 0 0 0 0 0 0 0 0 0 0 0 0 0 0 0 0 0 0 0 0 0 0 0 0 0 0 0 0 0 0 0 0
0 0 0 0 1 1 1 1 0 0 0 0 0 0 0 0 0 0 0 0 0 0 0 0 0 0 0 0 0 0 0 0 0 0 0 0 0 0 0 0 0 0 0
0 0 0 0 0 1 0 0 0 0 0 0 0 0 0 0 0 0 0 0 0 0 0 0 0 0 0 0 0 0 0 0 0 0 0 0 0 0 0 0 0 0 0
0 0 0 0 0 0 0 0 0 0 0 0 0 0 0 0 0 0 0 0 0 0 0 0 0 0 0 0 0 0 0 0 0 0 0 0 0 0 0 0 0 0 0
0 0 0 0 0 0 0 0 0 0 0 0 0 0 0 0 0 0 0 0 0 0 0 0 0 0 0 0 0 0 0 0 0 0 0 0 0 0 0 0 0 0 0
0 0 0 0 0 0 0 0 0 0 0 0 0 0 0 0 0 0 0 0 0 0 0 0 0 0 0 0 0 0 0 0 0 0 0 0 0 0 0 0 0 0 0
Wind_Speed
10 2 4 7 10 10 8 6 6 6 3 2 2 2 1 0 0 2 5 2 1 1 1 3 3 3 4 4 4 4 5 5 5 6 6 7 8 8 7 8 8 8 9
3 11 10 7 7 8 7 5 6 7 4 4 3 2 1 1 1 1 3 3 2 0 3 2 3 4 4 5 5 5 5 5 5 5 6 6 6 6 9 8 9 9 7
17 21 18 12 7 5 4 5 6 6 4 6 3 3 3 2 2 2 3 3 2 1 1 2 3 3 4 4 4 4 5 5 5 5 4 5 5 5 5 5 4 6 7
20 18 14 14 15 13 10 6 4 4 3 3 2 2 2 2 1 2 2 3 2 3 3 2 3 3 4 5 6 4 3 5 5 5 5 6 7 6 6 6 6 5 5
17 16 12 12 13 16 17 16 14 9 6 4 5 4 4 4 2 2 2 3 4 5 5 4 3 3 4 5 5 5 5 4 5 5 5 6 6 7 6 7 6 5 3
15 13 11 11 12 14 14 14 16 16 16 15 12 8 7 7 8 6 4 3 3 4 7 6 4 3 4 4 4 5 7 6 6 6 6 6 6 6 5 6 6 6 6
13 13 12 12 12 14 13 12 13 12 13 14 15 14 11 8 8 8 7 6 4 3 4 4 2 2 4 4 5 6 6 6 6 6 5 6 6 6 6 6 6 6 5
12 12 11 11 11 11 11 11 11 9 10 10 10 10 13 10 8 9 8 6 3 2 1 3 3 4 5 6 5 5 6 6 5 7 7 6 6 6 6 6 5 5 5
9 9 8 8 8 8 8 8 8 8 9 9 9 7 8 8 9 10 9 8 7 6 4 2 3 4 5 6 6 6 6 6 6 6 7 6 5 6 6 6 5 5 5
8 7 7 6 6 5 4 5 6 7 8 8 8 8 7 7 7 7 8 9 9 9 8 7 5 5 5 6 6 6 6 5 5 5 6 6 5 5 5 5 6 5 5
10 9 8 8 8 8 8 6 6 6 7 7 7 8 9 9 8 6 6 7 7 9 9 8 7 7 7 7 6 6 7 6 5 5 5 5 5 4 4 4 5 5 5
10 11 10 9 8 8 7 7 6 6 6 6 6 7 7 8 8 8 8 8 8 7 9 9 8 9 9 8 7 7 6 5 5 5 5 6 5 4 4 4 5 5 6
13 13 12 10 9 9 8 9 9 9 9 8 8 8 8 8 8 8 8 9 9 9 8 9 9 9 9 9 8 7 6 5 5 4 4 5 5 4 3 4 5 5 5
15 14 10 8 8 8 9 10 11 11 11 11 10 10 10 9 9 9 9 10 10 9 9 8 9 10 10 10 10 8 6 5 4 4 4 4 3 3 3 3 5 4 2
17 12 10 8 8 8 7 8 8 9 9 10 11 11 11 11 10 10 10 10 11 12 9 9 9 9 10 10 10 9 8 6 5 4 3 1 4 4 2 2 3 2 2
15 15 14 13 11 9 9 9 9 8 8 8 9 10 11 12 12 12 12 11 11 11 10 10 9 9 9 12 14 11 7 4 4 3 1 4 5 6 5 5 5 5 6
19 19 17 13 11 11 10 10 9 8 8 9 10 10 10 11 12 14 13 12 11 11 10 9 8 8 7 10 12 12 7 5 4 4 3 4 7 6 6 6 7 8 10
21 19 18 17 15 15 14 10 12 10 11 10 11 11 11 12 11 10 11 10 9 8 8 8 8 7 7 7 7 10 8 6 5 5 4 6 8 7 7 6 7 6 6
19 17 19 20 16 15 14 13 13 12 12 13 12 12 12 12 11 11 10 8 8 7 7 7 8 8 5 3 4 6 6 7 7 6 6 8 8 9 8 8 9 9 7
18 17 18 19 15 12 12 13 15 13 13 13 12 12 12 12 13 11 10 9 8 8 9 8 8 7 4 1 3 6 5 6 6 5 6 10 10 10 9 8 9 9 8
19 18 17 16 13 12 12 13 13 13 13 13 12 13 12 12 13 12 10 9 9 10 10 8 7 6 4 4 5 7 4 3 3 5 6 7 13 10 9 8 7 10 9
21 21 16 14 12 11 11 13 12 12 12 13 15 15 14 14 14 10 9 9 8 9 10 9 8 7 5 6 7 9 8 4 2 3 5 8 14 11 9 8 12 14 10
20 19 18 16 12 10 10 14 13 12 14 15 16 16 16 13 12 11 10 9 8 8 9 9 8 7 5 6 9 9 8 6 0 4 5 13 16 12 8 13 15 11 5
20 19 20 19 17 15 15 14 15 14 15 16 16 14 13 12 11 9 9 8 8 8 8 8 6 4 5 6 6 6 6 6 3 1 8 15 14 9 10 10 8 5 3
19 20 20 20 21 19 19 18 16 14 15 15 13 12 11 10 9 9 8 9 8 6 5 5 4 4 5 7 9 7 5 5 5 4 5 7 8 8 7 6 5 3 3
21 21 21 22 22 21 20 17 15 14 14 12 11 8 7 7 7 8 8 10 9 7 7 7 5 3 5 8 10 9 8 9 11 7 6 7 8 9 8 7 5 4 4
Wind_Direction
224 202 122 125 121 120 126 143 160 141 170 160 151 152 113 37 63 119 115 129 225 83 26 296 343 322 295 305 320 316 302 288 271 267 268 256 247 242 233 229 231 229 221
28 30 17 52 90 108 118 137 140 144 175 124 102 102 84 288 271 78 144 177 208 205 293 359 338 317 324 308 280 268 266 279 286 289 291 286 274 258 249 226 220 223 221
47 41 19 20 37 79 136 163 136 144 169 139 172 166 162 229 226 191 182 171 174 187 292 320 300 310 300 292 312 298 286 287 293 287 287 293 288 303 291 290 253 220 212
57 57 44 25 24 24 21 29 96 152 166 166 250 249 219 240 251 212 193 150 177 212 208 224 258 274 285 292 284 292 312 295 288 285 277 271 283 290 296 302 298 274 230
59 61 47 31 30 34 29 15 18 22 5 343 329 325 302 287 277 236 189 174 217 212 206 200 219 247 263 273 292 305 291 283 282 287 291 290 285 270 267 279 287 293 272
57 56 51 37 29 34 35 23 25 24 15 9 359 340 318 314 313 308 291 243 229 208 200 188 195 232 263 288 295 287 282 275 276 279 280 281 281 280 269 265 272 279 281
53 50 45 38 33 31 28 24 26 23 20 19 14 9 356 330 301 287 275 251 246 242 189 172 157 249 275 276 270 272 273 275 274 271 270 273 276 279 277 271 269 266 272
56 54 48 41 34 30 24 21 18 15 15 16 13 19 15 5 348 335 319 302 283 284 94 144 196 235 256 270 276 282 278 282 291 289 282 275 272 272 273 269 271 274 271
52 50 46 39 29 22 18 10 6 1 3 4 356 6 9 0 352 348 347 340 335 321 318 267 230 240 253 262 271 273 278 280 282 287 289 284 279 273 269 270 265 259 265
24 22 16 12 0 349 352 349 346 343 343 347 347 347 347 341 337 341 349 351 344 335 322 304 282 266 261 260 261 273 278 290 289 285 285 288 285 281 277 271 268 253 242
349 344 340 339 337 336 343 346 344 337 334 336 336 332 331 329 326 322 334 340 338 336 325 308 289 272 262 259 257 262 273 281 293 302 308 309 303 301 294 282 267 252 234
324 318 315 313 313 315 318 314 311 301 295 294 296 298 303 309 313 316 322 323 322 324 324 316 301 282 270 261 257 261 273 283 291 301 310 309 315 322 310 304 283 261 237
312 304 296 291 286 281 278 275 272 270 268 267 269 273 277 281 285 291 298 305 307 309 312 315 310 298 283 272 263 256 258 263 274 292 302 305 312 321 328 318 304 281 251
306 301 294 283 278 270 262 259 261 259 258 254 253 256 261 264 267 271 275 279 283 288 293 302 308 306 297 282 268 258 252 252 263 276 281 292 323 342 338 329 317 302 265
314 322 329 321 310 304 294 285 276 271 266 260 257 256 256 255 256 258 261 265 269 271 272 279 290 299 300 285 275 259 250 237 242 259 268 51 71 50 27 5 342 344 103
332 332 323 318 314 310 304 298 291 286 277 275 275 269 262 258 255 254 253 254 257 258 259 258 262 274 287 304 300 275 253 236 230 239 207 140 127 103 86 70 57 67 104
330 323 319 315 309 306 299 291 293 296 297 293 288 285 280 273 260 257 254 247 248 250 251 255 256 261 274 292 284 261 242 224 220 216 203 183 137 141 125 105 85 76 85
322 318 315 310 303 299 297 294 297 293 293 293 293 293 290 288 283 267 258 254 252 251 252 257 260 263 276 303 276 252 241 229 215 195 181 146 153 159 151 137 109 99 97
315 312 307 303 300 297 292 289 288 288 288 289 289 290 288 286 287 286 277 268 262 258 254 258 257 259 261 306 257 229 243 230 214 191 173 158 157 158 158 131 115 105 95
308 303 301 299 295 290 288 285 286 283 284 286 287 287 286 282 279 280 282 283 279 269 259 252 253 257 243 135 194 197 242 240 215 183 163 160 149 151 151 141 131 123 123
305 303 299 297 294 290 285 282 284 286 290 292 292 289 283 278 274 270 267 268 271 271 265 260 257 254 227 159 169 178 208 261 246 188 165 148 146 145 143 144 136 139 138
309 307 303 297 292 287 288 291 294 299 300 299 295 288 281 275 272 267 265 261 262 266 264 256 251 250 210 178 172 170 182 185 303 262 176 152 154 149 147 141 144 151 150
311 309 306 302 300 303 307 305 305 304 298 293 288 283 278 271 264 262 262 260 254 255 256 251 242 236 206 179 187 182 169 139 126 282 195 155 151 142 136 144 153 165 176
317 318 319 319 319 321 318 310 304 299 293 288 284 279 274 268 261 253 251 251 247 246 248 249 243 213 182 188 188 189 159 121 77 336 146 142 145 138 133 146 160 192 182
329 332 329 323 318 315 308 302 297 291 284 281 278 275 270 265 262 257 249 246 241 233 247 257 241 198 193 204 189 184 164 140 123 139 157 149 143 139 146 159 177 181 143
333 327 321 315 310 306 301 297 291 285 281 278 274 268 265 263 258 253 254 236 227 225 244 252 249 202 175 164 169 168 152 141 145 164 178 161 151 151 156 165 167 156 142